Santa Monica, CA

2:34 AM PDT on March 28, 2017 (GMT -0700)
Santa Monica Municipal

Weather History for KSMO - December, 2011

Change the Weather History Date:

Tuesday, December 6, 2011

  Actual Average Record
Temperature  
Mean Temperature 50 °F -  
Max Temperature 61 °F 68 °F 85 °F (1938)
Min Temperature 39 °F 48 °F 36 °F (1960)
Degree Days  
Heating Degree Days 15    
Moisture  
Dew Point 21 °F    
Average Humidity 33    
Maximum Humidity 53    
Minimum Humidity 13    
Precipitation  
Precipitation 0.00 in - - ()
Sea Level Pressure  
Sea Level Pressure 30.29 in    
Wind  
Wind Speed 3 mph (North)    
Max Wind Speed 9 mph    
Max Gust Speed -    
Visibility 10 miles    
Events      
Averages and records for this station are not official NWS values.
T = Trace of Precipitation, MM = Missing Value Source: NWS Daily Summary

Daily Weather History Graph

Daily Weather History Graph

Search for Another Location

Airport or City:

Trip Planner

Search our weather history database for the weather conditions in past years. The results will help you decide how hot, cold, wet, or windy it might be!

Date:

Astronomy

Dec. 06, 2011 Rise Set
Actual Time 6:45 AM PST 4:44 PM PST
Civil Twilight 6:17 AM PST 5:11 PM PST
Nautical Twilight 5:46 AM PST 5:42 PM PST
Astronomical Twilight 5:16 AM PST 6:13 PM PST
Moon 2:09 PM PST (12/6) 3:13 AM PST (12/6)
Length of Visible Light 10h 54m
Length of Day
9h 59m
Waxing Gibbous, 87% of the Moon is Illuminated
Dec 6
Waxing Gibbous
Dec 10
Full
Dec 17
Last Quarter
Dec 24
New
Dec 31
First Quarter

Hourly Weather History & Observations

Time (PST) Temp. Windchill Dew Point Humidity Pressure Visibility Wind Dir Wind Speed Gust Speed Precip Events Conditions
12:51 AM 45.0 °F 43.5 °F 17.1 °F 33% 30.28 in 10.0 mi NNW 3.5 mph - N/A   Clear
1:51 AM 46.0 °F 44.8 °F 16.0 °F 30% 30.28 in 10.0 mi NNW 3.5 mph - N/A   Clear
2:51 AM 43.0 °F - 18.0 °F 37% 30.28 in 10.0 mi Calm Calm - N/A   Clear
3:51 AM 39.0 °F 36.8 °F 23.0 °F 53% 30.28 in 10.0 mi North 3.5 mph - N/A   Clear
4:51 AM 39.9 °F - 23.0 °F 51% 30.28 in 10.0 mi Calm Calm - N/A   Clear
5:51 AM 39.0 °F 35.7 °F 23.0 °F 53% 30.29 in 10.0 mi ENE 4.6 mph - N/A   Clear
6:51 AM 42.1 °F 40.2 °F 19.0 °F 40% 30.30 in 10.0 mi NNE 3.5 mph - N/A   Clear
7:51 AM 48.9 °F - 18.0 °F 29% 30.31 in 10.0 mi North 3.5 mph - N/A   Clear
8:51 AM 55.0 °F - 16.0 °F 22% 30.32 in 10.0 mi NE 4.6 mph - N/A   Clear
9:51 AM 57.0 °F - 14.0 °F 18% 30.34 in 10.0 mi NE 3.5 mph - N/A   Clear
10:51 AM 59.0 °F - 12.9 °F 16% 30.32 in 10.0 mi East 4.6 mph - N/A   Clear
11:51 AM 61.0 °F - 12.9 °F 15% 30.29 in 10.0 mi Calm Calm - N/A   Clear
12:51 PM 61.0 °F - 10.0 °F 13% 30.27 in 10.0 mi SW 9.2 mph - N/A   Clear
1:51 PM 59.0 °F - 26.1 °F 28% 30.26 in 10.0 mi SW 8.1 mph - N/A   Clear
2:51 PM 57.9 °F - 30.9 °F 36% 30.26 in 10.0 mi WSW 6.9 mph - N/A   Clear
3:51 PM 57.9 °F - 25.0 °F 28% 30.26 in 10.0 mi West 6.9 mph - N/A   Clear
4:51 PM 55.9 °F - 36.0 °F 47% 30.27 in 10.0 mi Calm Calm - N/A   Clear
5:51 PM 54.0 °F - 37.0 °F 53% 30.27 in 10.0 mi Calm Calm - N/A   Clear
6:51 PM 52.0 °F - 28.0 °F 40% 30.28 in 10.0 mi Calm Calm - N/A   Clear
7:51 PM 53.1 °F - 24.1 °F 32% 30.29 in 10.0 mi Calm Calm - N/A   Clear
8:51 PM 50.0 °F - 18.0 °F 28% 30.30 in 10.0 mi NNE 4.6 mph - N/A   Clear
9:51 PM 50.0 °F - 15.1 °F 25% 30.30 in 10.0 mi NNE 5.8 mph - N/A   Clear
11:51 PM 48.0 °F - 12.0 °F 24% 30.27 in 10.0 mi NE 3.5 mph - N/A   Clear